Temperature
21 20 19 20 20 21 21 21 21 21 22 21 20 18 18 19 19 18 17 17 16 16 16 17 17 17 18 19 19 19 20 20 19 19 18 18 18 18 18 18 18 17 17 17
19 20 21 21 22 21 21 21 20 21 21 21 20 19 18 18 16 16 16 16 16 17 18 18 18 18 19 18 18 19 20 19 18 18 18 18 18 17 17 17 17 17 17 17
20 22 22 22 21 21 20 20 20 19 20 20 20 19 17 17 16 16 16 16 15 16 18 19 21 20 18 18 19 20 21 20 19 18 18 18 17 17 17 16 16 17 18 18
21 22 22 22 21 21 20 21 21 20 19 18 19 18 18 15 15 16 16 16 15 15 16 16 16 17 17 18 18 19 20 21 20 20 18 17 16 16 16 16 15 16 16 17
21 21 22 22 21 22 21 20 19 19 19 18 18 17 17 15 15 16 16 16 16 17 17 18 17 17 18 18 18 19 19 20 20 20 18 17 16 15 14 14 15 15 16 16
21 22 22 22 21 21 20 19 17 15 15 17 17 17 16 15 15 15 16 17 18 18 19 19 19 18 17 16 16 16 17 18 19 18 17 16 15 15 14 15 15 15 15 15
20 21 21 22 21 20 18 18 16 16 16 17 15 16 16 16 15 15 15 16 18 18 18 18 18 18 17 16 16 15 16 17 17 17 17 15 15 15 15 14 15 15 15 15
18 17 21 21 21 20 18 16 16 15 15 15 16 16 16 16 15 15 16 16 16 16 16 16 16 15 15 14 15 15 15 15 14 14 15 15 14 15 14 14 14 14 14 15
18 19 21 20 19 19 16 16 16 15 13 12 14 15 17 15 14 15 15 15 16 17 17 17 16 15 15 15 14 14 14 14 14 14 14 14 14 14 13 13 13 13 13 13
19 18 20 19 19 16 16 15 13 15 14 13 14 13 16 16 15 15 14 15 16 17 17 16 16 15 15 15 15 15 14 14 14 14 14 14 14 14 13 13 13 13 13 13
18 18 18 19 18 17 16 14 14 13 13 13 14 15 14 16 16 14 14 16 16 16 16 15 15 15 15 14 14 14 14 13 13 13 14 14 14 13 13 13 13 13 13 13
18 15 17 17 17 16 16 14 13 14 13 11 11 14 15 14 13 13 14 15 15 15 15 14 14 14 14 14 13 13 13 13 13 14 14 14 14 13 13 13 13 13 13 13
18 16 16 17 17 16 16 13 11 10 12 12 12 14 15 14 14 15 15 15 15 15 14 13 13 14 14 13 12 11 12 13 13 14 14 14 13 13 13 13 13 13 13 13
17 15 16 16 17 17 16 15 12 12 11 13 12 14 15 15 13 14 15 15 14 13 12 12 12 13 13 12 12 11 12 13 13 14 14 13 13 13 13 13 13 13 13 13
15 16 15 15 15 16 16 16 13 12 13 13 15 12 14 14 13 14 14 14 14 13 12 11 11 12 11 11 12 11 12 13 13 13 13 13 13 13 13 13 12 12 12 13
15 17 15 16 17 16 15 16 15 13 13 12 13 13 15 14 14 14 14 14 14 13 12 12 11 11 11 11 11 12 13 12 12 12 12 12 13 13 13 12 12 12 12 12
15 14 14 14 16 16 14 16 16 15 14 13 13 15 14 13 11 12 15 15 15 14 12 11 11 12 11 11 12 12 12 11 12 12 12 12 12 12 13 12 12 12 12 12
12 11 12 13 14 13 16 16 16 15 15 14 14 13 12 13 15 15 16 16 15 14 13 12 11 11 11 11 11 11 12 12 12 12 12 12 12 12 12 12 12 12 12 12
11 12 13 12 13 14 15 17 16 16 16 16 14 14 14 14 13 15 17 16 16 15 13 12 12 11 11 11 11 11 11 12 12 12 12 12 11 11 11 11 12 12 12 11
11 11 13 12 12 13 15 17 17 16 15 17 15 14 13 12 13 15 18 17 16 15 14 13 12 11 11 11 11 11 11 11 11 11 11 11 11 11 11 11 11 11 11 11
13 12 12 12 12 13 15 16 17 15 15 18 17 17 14 13 16 18 17 17 16 15 14 13 12 11 11 10 10 10 10 10 11 11 11 10 10 10 10 10 10 11 11 11
13 13 13 12 12 12 16 16 14 15 17 18 18 18 17 18 19 18 17 16 15 15 14 13 12 11 11 10 10 10 10 10 10 10 10 10 10 10 10 10 10 10 11 10
12 13 13 13 13 15 17 17 17 17 17 18 18 18 18 18 19 18 17 16 16 15 14 13 12 11 11 11 11 11 10 10 10 10 10 10 10 10 10 10 10 10 10 10
13 13 12 12 13 14 16 16 17 17 17 17 18 18 17 17 18 18 17 16 16 15 14 13 12 11 11 11 11 11 10 10 10 9 9 9 9 9 9 10 10 10 10 9
14 13 11 11 13 14 16 16 17 17 17 17 18 18 18 18 18 18 18 17 16 15 14 13 12 12 11 11 11 11 10 10 9 9 8 8 9 9 9 9 9 10 10 10
12 13 12 14 15 15 15 16 17 16 17 17 17 18 18 18 18 18 18 17 16 15 14 13 12 12 12 11 11 11 10 10 9 9 8 8 8 8 9 9 9 9 10 9
Wind_Speed
3 2 3 5 5 3 3 2 2 4 5 5 5 7 11 12 12 12 11 12 14 12 12 17 17 15 14 12 8 4 4 5 6 6 6 6 6 5 5 6 8 10 10 9
4 3 5 4 2 2 3 4 4 4 5 4 5 5 7 11 10 10 11 9 8 7 7 5 6 12 16 14 10 4 2 1 4 5 6 6 4 3 3 3 4 6 6 6
2 5 3 4 5 6 4 4 2 4 6 4 5 4 6 6 6 9 10 6 4 1 5 7 9 6 8 12 8 4 2 7 8 7 5 2 2 2 2 2 1 2 3 2
3 5 4 4 3 4 2 1 2 3 4 4 4 4 3 4 6 6 7 7 6 3 7 8 12 10 11 12 8 5 7 12 12 6 5 6 3 5 5 2 2 2 3 4
4 4 5 3 2 2 2 2 2 0 2 2 2 2 6 5 6 9 8 8 8 7 8 10 9 8 9 8 6 6 8 9 5 5 3 5 8 11 5 3 3 1 3 5
3 3 1 1 2 2 3 3 4 4 3 2 2 1 6 4 3 5 8 9 8 9 11 12 11 8 5 6 6 5 8 9 6 2 4 3 8 10 7 4 3 3 3 3
5 5 3 2 2 3 6 6 5 6 4 4 3 2 7 5 6 6 6 9 9 10 11 13 13 13 10 7 7 8 7 8 9 8 7 8 10 10 8 5 3 2 2 1
1 6 3 0 2 2 3 6 4 2 4 6 5 6 5 5 4 5 7 9 10 11 11 11 12 13 15 15 12 7 4 5 5 1 4 6 8 7 4 3 4 3 2 2
3 4 3 3 3 4 3 3 4 4 0 4 6 7 7 4 7 9 10 9 10 11 10 10 11 11 12 14 13 10 6 5 5 6 7 8 7 7 6 7 6 5 3 2
5 3 3 3 4 6 4 5 3 1 1 4 6 5 6 6 10 11 10 10 10 9 9 9 8 9 10 10 9 7 8 8 7 10 11 11 11 9 8 6 5 5 3 3
4 5 4 1 4 5 4 2 3 3 3 3 5 8 8 9 9 9 11 9 9 10 9 8 8 8 8 9 7 3 2 4 7 8 7 8 10 7 5 4 5 5 4 4
5 5 4 6 2 3 5 6 7 5 4 3 3 9 7 8 8 7 10 9 9 9 8 6 6 6 7 9 11 10 5 0 4 6 9 10 10 6 4 5 5 4 5 5
5 4 1 7 5 1 2 3 5 5 3 6 6 9 5 5 6 7 8 10 10 9 7 4 2 3 5 5 4 3 2 2 4 7 9 9 9 7 5 7 6 6 7 7
5 5 7 9 8 4 4 4 5 5 5 7 10 13 15 13 9 10 9 10 9 8 6 1 3 5 5 3 3 7 3 2 3 5 7 6 7 7 4 7 8 8 8 7
4 3 5 6 7 5 7 8 7 9 10 10 12 11 16 13 8 7 7 8 7 7 5 6 5 4 3 2 4 9 2 4 5 4 4 3 4 5 5 7 9 8 7 7
2 0 1 4 7 7 8 11 9 9 7 10 10 13 15 10 5 7 8 8 7 6 5 8 7 7 7 7 6 3 4 3 3 3 2 4 4 4 5 6 8 7 7 7
2 5 3 5 3 4 8 9 7 7 9 9 10 13 6 6 8 9 9 8 8 6 6 8 7 7 7 7 6 3 0 2 2 4 2 3 4 4 5 8 9 8 6 6
6 6 4 2 1 5 9 4 6 7 10 12 11 11 9 9 6 7 8 7 8 7 7 8 7 7 6 4 2 2 1 1 3 5 4 3 4 5 6 8 9 7 6 7
5 5 3 2 5 8 7 8 5 6 13 10 10 14 7 3 2 8 10 10 11 7 7 7 7 6 5 4 2 2 2 2 4 3 4 4 4 6 7 5 4 4 5 5
5 4 2 2 4 7 7 7 3 3 9 7 8 12 5 7 3 11 9 6 7 8 7 7 7 6 5 4 3 3 4 5 5 4 4 4 4 5 5 5 2 2 5 6
4 3 3 5 7 8 8 4 2 4 10 5 5 8 8 9 12 7 2 2 3 6 8 8 8 7 6 4 4 5 5 5 5 4 3 3 4 4 4 4 2 4 8 9
4 4 4 3 5 7 4 1 4 8 6 6 8 11 11 13 11 7 5 5 5 7 8 9 8 7 5 5 6 6 5 4 4 4 4 4 5 5 3 4 4 6 10 10
5 6 5 7 9 10 9 10 12 9 11 14 12 16 13 11 11 10 7 8 8 9 9 9 9 8 6 6 7 7 6 5 5 6 5 4 4 4 4 4 4 6 8 8
6 6 8 10 15 14 14 15 16 14 12 14 13 13 9 13 13 10 8 8 8 9 9 9 9 8 8 8 8 7 5 6 6 6 5 4 4 4 4 4 4 5 7 7
8 6 8 9 14 15 17 13 14 13 11 11 13 10 12 14 15 12 9 10 10 10 9 9 10 10 11 10 9 8 8 9 9 8 7 5 4 4 4 4 2 4 5 8
4 5 7 15 20 15 14 18 16 12 12 13 12 10 12 14 16 12 11 11 11 11 10 10 11 12 11 9 9 9 10 11 10 9 8 7 6 5 4 4 5 7 4 7
Wind_Direction
355 23 270 244 226 215 217 248 290 293 317 353 9 347 349 29 54 35 21 21 33 44 31 27 15 19 20 9 359 310 239 216 196 197 198 209 215 204 200 210 198 194 196 196
17 296 254 202 246 94 86 60 10 312 323 2 355 2 358 47 53 42 33 33 45 22 358 359 343 355 4 355 357 345 249 271 273 245 220 210 182 199 213 227 219 188 173 157
135 296 337 116 56 52 57 82 4 308 325 354 1 359 10 27 32 36 36 45 91 189 271 278 276 226 249 264 278 290 297 274 267 281 251 242 180 188 119 115 54 357 356 7
319 341 37 68 62 60 356 242 299 323 5 319 21 288 315 327 330 354 12 30 33 304 262 244 258 267 252 246 248 244 231 241 233 205 259 237 125 64 72 88 102 40 335 303
295 343 5 15 34 66 274 348 349 321 147 269 314 247 275 341 329 335 344 357 353 334 307 287 269 276 288 283 270 261 258 253 235 136 242 236 107 92 91 111 82 18 288 279
268 290 265 200 65 47 355 27 32 42 59 273 265 295 278 246 244 296 318 324 325 320 313 306 302 305 316 313 316 309 298 285 271 137 139 152 141 136 153 153 185 232 245 252
329 312 288 185 83 22 48 45 2 353 358 263 273 262 252 223 216 224 258 283 297 301 302 303 306 309 306 293 277 264 261 272 258 212 172 173 152 139 148 156 169 208 212 166
259 291 281 66 121 126 94 122 152 235 271 292 288 254 258 247 226 238 251 263 278 272 266 269 279 294 302 298 280 262 252 264 274 275 91 68 70 80 92 152 181 184 159 132
179 265 305 26 90 101 148 165 150 139 259 291 282 297 302 271 268 267 263 262 268 273 267 266 272 270 273 274 271 266 231 207 160 138 124 116 120 136 163 184 179 162 150 133
185 259 273 148 87 45 108 134 133 136 225 281 281 266 243 267 266 266 263 263 280 289 293 299 311 305 290 274 269 249 184 171 171 170 172 158 156 150 158 170 146 119 115 109
148 203 255 239 201 193 143 142 125 150 166 209 275 271 225 232 247 261 274 278 288 294 298 307 320 327 337 346 348 6 82 158 189 180 170 156 129 132 151 140 121 114 104 102
174 153 222 244 256 190 162 173 158 176 218 179 221 271 254 256 275 266 273 285 290 292 294 310 324 1 35 50 46 35 38 13 218 179 156 143 122 124 109 88 75 73 77 80
175 144 310 319 327 287 182 161 144 134 157 194 207 262 278 273 281 272 273 284 287 296 301 324 3 51 44 65 76 357 278 234 225 161 131 129 130 127 118 90 68 67 76 70
125 164 187 221 234 223 227 201 171 157 198 227 230 261 283 280 271 287 283 276 288 297 283 141 94 74 49 35 343 274 263 334 297 140 129 120 130 137 144 112 100 96 99 100
108 187 208 238 236 219 242 233 191 202 217 227 253 232 258 263 255 256 256 274 297 298 250 181 163 130 107 222 221 259 356 357 0 61 122 153 145 144 147 119 114 107 99 99
79 198 183 269 258 244 260 261 230 231 233 242 263 269 259 255 239 253 255 265 276 271 226 189 187 189 184 198 223 275 22 2 16 61 119 179 165 153 125 125 119 105 97 87
176 171 193 260 286 320 274 249 227 220 217 214 234 252 242 240 234 244 251 253 255 240 208 194 194 195 198 200 201 203 96 325 106 107 120 144 145 133 106 126 130 128 113 99
160 147 167 220 53 241 253 252 221 224 250 225 246 257 220 228 243 242 238 239 248 235 222 217 207 197 192 193 210 275 335 68 100 92 93 98 95 106 116 124 137 143 126 110
150 148 164 184 214 265 284 264 213 222 270 241 232 258 233 189 315 282 240 221 232 213 207 203 192 182 183 206 235 267 275 202 154 121 98 100 107 95 94 109 145 145 126 109
77 79 139 211 246 263 249 253 168 123 283 242 219 251 193 134 259 272 262 219 223 194 188 183 180 172 182 213 231 241 227 194 172 158 130 120 113 118 140 144 146 104 117 117
3 343 248 233 248 270 266 290 122 198 269 282 237 243 169 187 224 242 251 215 222 183 183 169 167 178 197 203 187 201 200 193 168 148 127 122 135 131 144 133 97 111 119 112
283 263 267 266 277 279 267 349 222 248 270 275 275 251 208 223 239 243 244 233 206 181 178 171 170 188 199 199 188 193 196 191 159 147 159 167 148 136 136 121 106 117 120 117
232 209 227 231 243 255 259 262 263 244 257 276 274 266 233 228 236 234 233 229 214 193 180 178 178 179 194 201 194 191 199 169 156 163 174 163 121 115 108 113 127 130 139 143
256 225 236 264 264 261 275 279 274 270 258 263 255 253 226 226 236 221 214 217 202 193 185 178 174 178 198 205 203 206 182 161 156 162 162 147 142 143 113 107 131 146 157 153
254 233 244 258 281 290 287 269 260 266 262 260 266 248 235 233 236 218 201 205 200 194 184 178 184 190 207 203 201 196 179 167 167 167 165 155 141 138 119 103 126 168 169 174
237 240 277 290 289 290 280 278 271 256 263 267 258 255 243 228 234 210 202 200 190 191 182 185 192 199 211 203 199 187 175 170 169 172 174 165 148 136 132 130 92 50 95 140
Height
1505 1510 1515 1512 1510 1511 1512 1515 1517 1510 1501 1503 1505 1505 1498 1494 1498 1501 1502 1505 1509 1511 1512 1511 1511 1512 1514 1515 1517 1517 1517 1516 1516 1516 1517 1517 1516 1514 1513 1515 1515 1516 1518 1519
1512 1512 1505 1505 1504 1507 1510 1515 1517 1511 1503 1504 1505 1507 1503 1503 1505 1507 1507 1506 1507 1508 1509 1510 1509 1511 1508 1513 1513 1511 1511 1513 1514 1514 1512 1510 1509 1509 1507 1509 1512 1514 1516 1515
1512 1507 1501 1503 1506 1510 1513 1518 1518 1519 1510 1506 1509 1513 1512 1509 1508 1508 1507 1506 1508 1508 1507 1507 1504 1507 1519 1517 1510 1504 1502 1504 1505 1507 1506 1504 1503 1504 1503 1502 1510 1515 1516 1514
1509 1505 1504 1506 1510 1510 1518 1511 1512 1513 1519 1524 1519 1532 1517 1515 1511 1507 1506 1506 1507 1507 1506 1508 1506 1503 1501 1503 1501 1499 1497 1496 1494 1493 1499 1498 1495 1497 1498 1500 1506 1509 1510 1511
1513 1507 1507 1509 1509 1508 1512 1509 1512 1513 1518 1524 1522 1528 1520 1516 1513 1508 1506 1505 1505 1504 1504 1504 1503 1500 1496 1495 1494 1492 1491 1489 1488 1480 1494 1490 1485 1486 1491 1494 1499 1503 1507 1509
1509 1505 1505 1507 1507 1507 1509 1512 1518 1523 1528 1535 1526 1530 1527 1517 1512 1510 1506 1505 1504 1502 1500 1499 1496 1494 1492 1490 1487 1485 1486 1485 1483 1473 1477 1479 1481 1481 1486 1493 1499 1502 1502 1503
1513 1508 1504 1504 1508 1509 1513 1524 1538 1539 1541 1536 1529 1530 1521 1509 1508 1507 1506 1504 1503 1502 1501 1498 1495 1491 1488 1485 1482 1481 1481 1481 1479 1469 1465 1465 1470 1477 1484 1490 1493 1496 1496 1496
1526 1532 1507 1504 1507 1513 1518 1527 1544 1553 1550 1542 1527 1526 1514 1505 1505 1504 1503 1502 1502 1500 1499 1496 1493 1490 1486 1483 1480 1478 1475 1474 1473 1474 1475 1472 1474 1480 1486 1490 1491 1493 1492 1492
1524 1523 1507 1505 1505 1509 1523 1526 1528 1538 1548 1553 1536 1521 1508 1503 1502 1500 1499 1498 1496 1495 1493 1491 1487 1483 1481 1478 1477 1476 1474 1473 1473 1475 1478 1477 1481 1484 1489 1491 1491 1491 1491 1490
1513 1523 1510 1508 1508 1513 1518 1523 1537 1535 1547 1552 1536 1533 1518 1504 1499 1496 1494 1493 1492 1491 1489 1487 1483 1479 1475 1473 1471 1470 1470 1471 1470 1472 1476 1476 1479 1483 1487 1489 1487 1486 1488 1488
1510 1520 1518 1512 1514 1516 1521 1526 1529 1538 1541 1546 1544 1526 1504 1497 1494 1493 1491 1490 1490 1487 1486 1484 1481 1477 1473 1471 1469 1467 1467 1466 1468 1471 1474 1478 1479 1483 1486 1485 1483 1483 1485 1485
1508 1519 1522 1517 1512 1511 1513 1519 1525 1536 1539 1547 1547 1525 1494 1493 1492 1492 1489 1487 1486 1484 1483 1481 1478 1476 1474 1472 1470 1467 1468 1468 1468 1469 1473 1476 1478 1481 1483 1482 1480 1481 1482 1484
1505 1517 1527 1525 1522 1515 1513 1518 1523 1529 1532 1536 1539 1520 1492 1490 1488 1487 1486 1484 1483 1481 1479 1477 1477 1476 1475 1474 1474 1473 1474 1474 1473 1471 1471 1472 1475 1477 1479 1480 1480 1480 1481 1484
1501 1513 1519 1527 1519 1513 1513 1514 1519 1521 1530 1524 1522 1506 1492 1487 1486 1483 1481 1481 1479 1477 1476 1476 1477 1475 1475 1475 1476 1479 1475 1475 1474 1473 1472 1474 1475 1476 1480 1481 1481 1481 1483 1486
1503 1510 1512 1511 1509 1509 1507 1506 1511 1516 1511 1514 1500 1503 1489 1482 1480 1479 1479 1477 1476 1475 1474 1475 1476 1475 1474 1474 1476 1479 1473 1473 1473 1472 1472 1475 1477 1479 1481 1482 1482 1484 1486 1486
1502 1507 1511 1510 1504 1505 1506 1502 1502 1506 1506 1504 1500 1493 1476 1473 1474 1474 1473 1473 1472 1473 1473 1472 1474 1474 1474 1473 1474 1474 1471 1472 1472 1473 1476 1477 1478 1480 1482 1485 1486 1488 1488 1489
1502 1507 1512 1514 1505 1506 1511 1496 1493 1494 1493 1493 1494 1481 1472 1471 1470 1469 1468 1468 1468 1469 1469 1469 1472 1473 1473 1473 1474 1474 1472 1474 1475 1475 1476 1476 1476 1478 1481 1485 1488 1489 1490 1491
1505 1509 1513 1515 1511 1520 1496 1484 1483 1485 1481 1477 1475 1472 1468 1466 1466 1464 1464 1464 1464 1465 1465 1466 1468 1469 1470 1470 1471 1471 1471 1472 1473 1475 1475 1476 1477 1479 1481 1483 1485 1488 1489 1491
1500 1506 1510 1515 1514 1501 1488 1477 1477 1480 1476 1467 1469 1465 1463 1464 1464 1461 1460 1460 1460 1461 1462 1464 1465 1467 1468 1468 1468 1468 1469 1471 1473 1475 1476 1478 1478 1479 1480 1483 1484 1487 1489 1490
1501 1504 1509 1514 1513 1505 1484 1469 1468 1475 1478 1462 1460 1458 1459 1462 1467 1459 1456 1455 1456 1456 1458 1460 1462 1463 1465 1465 1466 1465 1466 1469 1471 1473 1476 1477 1478 1479 1481 1483 1485 1486 1488 1489
1506 1508 1509 1511 1509 1493 1477 1470 1471 1481 1475 1459 1457 1455 1456 1456 1454 1453 1452 1452 1453 1453 1454 1456 1459 1460 1461 1462 1464 1464 1466 1468 1470 1473 1475 1476 1477 1479 1481 1482 1484 1486 1487 1489
1507 1508 1506 1506 1505 1498 1472 1471 1476 1470 1461 1457 1455 1452 1449 1447 1447 1448 1449 1449 1449 1450 1451 1453 1455 1456 1459 1461 1462 1464 1465 1466 1469 1471 1473 1475 1476 1478 1480 1482 1483 1485 1486 1489
1501 1498 1497 1494 1490 1475 1468 1465 1462 1459 1456 1453 1450 1445 1443 1442 1442 1442 1444 1445 1445 1446 1447 1449 1451 1453 1455 1458 1460 1462 1463 1465 1467 1469 1471 1473 1475 1477 1479 1480 1482 1484 1487 1490
1492 1487 1486 1482 1474 1466 1463 1459 1455 1451 1448 1446 1443 1439 1437 1436 1435 1436 1437 1439 1440 1441 1443 1446 1447 1449 1452 1455 1457 1459 1461 1463 1464 1466 1469 1471 1474 1476 1478 1479 1481 1484 1486 1487
1482 1480 1478 1474 1464 1459 1455 1451 1447 1442 1440 1438 1436 1434 1431 1429 1427 1428 1429 1432 1434 1436 1439 1441 1443 1445 1448 1451 1453 1455 1457 1460 1461 1463 1466 1469 1471 1473 1475 1476 1479 1482 1483 1485
1475 1475 1474 1464 1456 1452 1447 1440 1437 1435 1431 1429 1428 1426 1425 1423 1420 1420 1423 1426 1428 1430 1433 1436 1438 1441 1444 1447 1449 1451 1453 1455 1458 1460 1462 1465 1468 1470 1472 1474 1477 1480 1482 1484